Skip Page Navigation
NASA JPL Caltech
NASA Logo - Jet Propulsion Laboratory + View the NASA Portal
+ Center for Near-Earth Object Studies
JPL Home Earth Solar System Stars & Galaxies Technology
JPL Solar System Dynamics
BODIES ORBITS EPHEMERIDES TOOLS PHYSICAL DATA DISCOVERY FAQ SITE MAP
JPL Small-Body Database Browser
Search: [ help ]  
19690 (1999 RD212)
Classification: Main-belt Asteroid          SPK-ID: 2019690
Ephemeris | Orbit Diagram | Orbital Elements | Mission Design | Physical Parameters | Discovery Circumstances | Close-Approach Data ]

[ hide orbit diagram ]

For accurate long-term ephemerides, please instead use our Horizons system.This orbit viewer was implemented using two-body methods, and hence should not be used for determining accurate long-term trajectories (over several years or decades) or planetary encounter circumstances.


Orbital Elements at Epoch 2459396.5 (2021-Jul-01.0) TDB
Reference: JPL 35 (heliocentric ecliptic J2000)
 Element Value Uncertainty (1-sigma)   Units 
e .1762988046682601 1.2414e-08  
a 3.176645232613866 1.6799e-08 au
q 2.616606475248914 3.8836e-08 au
i 9.752631789199505 6.5982e-07 deg
node 325.0211260975231 2.0606e-06 deg
peri 316.9123435735258 7.5822e-06 deg
M 23.40440925264966 6.2338e-06 deg
tp 2459262.054372304671
(2021-Feb-16.55437230)
3.5314e-05 TDB
period 2068.004598955602
5.66
1.6404e-05
4.491e-08
d
yr
n .1740808507784797 1.3809e-09 deg/d
Q 3.736683989978818 1.9761e-08 au
  Orbit Determination Parameters
   # obs. used (total)      1833  
   data-arc span      9295 days (25.45 yr)  
   first obs. used      1996-01-12  
   last obs. used      2021-06-24  
   planetary ephem.      DE441  
   SB-pert. ephem.      SB441-N16  
   condition code      0  
   norm. resid. RMS      .49258  
   source      ORB  
   producer      Otto Matic  
   solution date      2021-Jul-08 04:51:34  

Additional Information
 Earth MOID = 1.61031 au 
 Jupiter MOID = 1.54001 au 
 T_jup = 3.154 
[ hide covariance matrix ]
Orbital Elements at Epoch 2456837.5 (2014-Jun-29.0) TDB
Reference: JPL 35 (heliocentric ecliptic J2000)
 Element Value Uncertainty (1-sigma)   Units 
e .173513859490462 1.2484e-08  
q 2.623236781294061 3.8824e-08 au
tp 2457196.337946283544
(2015-Jun-22.83794628)
3.2283e-05 TDB
node 325.063690234003 2.0621e-06 deg
peri 316.9304966614875 7.715e-06 deg
i 9.748136825371418 6.5956e-07 deg
  Orbit Determination Parameters
   # obs. used (total)      1833  
   data-arc span      9295 days (25.45 yr)  
   first obs. used      1996-01-12  
   last obs. used      2021-06-24  
   planetary ephem.      DE441  
   SB-pert. ephem.      SB441-N16  
   condition code      0  
   norm. resid. RMS      .49258  
   source      ORB  
   producer      Otto Matic  
   solution date      2021-Jul-08 04:51:34  

Additional Information
 Jupiter MOID = 1.54001 au 
 T_jup = 3.154 
Orbit Covariance (6×6)
  e q tp node peri i
e 1.558450349531262E-16 -4.535504932825488E-16 -1.178551389820096E-13 8.109753021376646E-15 -4.010264477479727E-14 2.3497178794504E-15
q -4.535504932825488E-16 1.507285382614151E-15 3.628396296819222E-13 -2.748651210066449E-14 1.264653712718056E-13 -7.439671821383911E-15
tp -1.178551389820096E-13 3.628396296819222E-13 1.042222314072797E-9 1.305696039060182E-11 2.408098702680562E-10 -1.198323987886189E-11
node 8.109753021376646E-15 -2.748651210066449E-14 1.305696039060182E-11 4.252265739175232E-12 -6.543307110076502E-13 6.882867768217893E-15
peri -4.010264477479727E-14 1.264653712718056E-13 2.408098702680562E-10 -6.543307110076502E-13 5.952081071806662E-11 -3.021248230569679E-12
i 2.3497178794504E-15 -7.439671821383911E-15 -1.198323987886189E-11 6.882867768217893E-15 -3.021248230569679E-12 4.350242169802907E-13

Ephemeris | Orbit Diagram | Orbital Elements | Mission Design | Physical Parameters | Discovery Circumstances | Close-Approach Data ]

Physical Parameter Table
Parameter Symbol Value Units Sigma Reference Notes
absolute magnitude H 12.88   n/a MPCxxxxx  
diameter diameter 16.723 km 0.141 urn:nasa:pds:neowise_diameters_albedos::2.0[mainbelt] (http://adsabs.harvard.edu/abs/2011ApJ...741...68M)  
rotation period rot_per 25.4988 h n/a LCDB (Rev. 2020-October); Warner et al., 2009 sidereal period (not synodic); Result based on less than full coverage, so that the period may be wrong by 30 percent or so.
Published Reference List:
[Durech, J.; Hanus, J.; Ali-Lagoa, V. (2018) Astron. Astrophys. 617, A57.]
geometric albedo albedo 0.051   0.013 urn:nasa:pds:neowise_diameters_albedos::2.0[mainbelt] (http://adsabs.harvard.edu/abs/2011ApJ...741...68M)  

19690 (1999 RD212)          Discovered 1999-Sep-08 by LINEAR at Socorro
Reference: 20001211/Numbers.arcLast Updated: 2004-04-19

[ hide close-approach data ]
Close-Approach Data   ...sorted by Date/Time (TDB)
Date/Time (TDB) Time Uncertainty
(days_HH:MM)
Body Nominal Distance (au) Minimum Distance (au) Maximum Distance (au) V-relative (km/s) V-infinity (km/s) JD (TDB) Time Uncertainty (minutes) Semi-major axis (km) Semi-minor axis (km) range-LOV angle (deg) N-sigma BP Orbit Ref. Reference Modified
1967-Aug-07 09:39 00:02 Jupiter 1.83060017155538 1.83059916360946 1.8306011795012 3.35362590063544 3.21269396565099 2439709.902362014 1.5646306943722 46.6162356430183 13.0914680654437 -21.9319904642129 3269145.37709637 T 35 CATAB v2.0g-lin.ifort 2021-Jul-08 04:53:00 2021-Jul-08 04:53
1978-Jul-13 00:23 00:01 Jupiter 1.60352553317475 1.60352519255155 1.60352587380051 2.54824545802323 2.33175998325831 2443702.515662336 1.1794197313582 110.121051896603 2.93627894278252 88.9767290798516 12601430.863008 T 35 CATAB v2.0g-lin.ifort 2021-Jul-08 04:53:00 2021-Jul-08 04:53
1989-May-27 13:32 < 00:01 Jupiter 1.5984060132612 1.59840582451822 1.59840620200445 1.55604041332701 1.16680237322624 2447674.063686310 0.895696836579053 100.553889093547 49.6889392302748 -20.9422074475272 3434571.51411444 T 35 CATAB v2.0g-lin.ifort 2021-Jul-08 04:53:00 2021-Jul-08 04:53
2000-Feb-11 16:40 < 00:01 Jupiter 1.76971057735735 1.7697103277719 1.76971082694281 2.1071177448938 1.86619963650397 2451586.194616208 0.514267108185891 39.7980293863637 5.69925504234695 64.215648344131 4974584.31503079 T 35 CATAB v2.0g-lin.ifort 2021-Jul-08 04:53:00 2021-Jul-08 04:53
2010-Nov-20 00:51 < 00:01 Jupiter 1.99878118675693 1.99878097431954 1.99878139919432 4.35941130200684 4.26109468247916 2455520.535446597 0.150109036617158 24.8497281241458 5.8713704845801 72.7563887198143 9520430.13296824 T 35 CATAB v2.0g-lin.ifort 2021-Jul-08 04:53:00 2021-Jul-08 04:53
2098-Feb-14 06:52 00:02 Jupiter 1.79499305055938 1.79499197462716 1.79499412649211 3.2769869126179 3.12967760305711 2487383.785778955 1.79376167302334 73.9613225489153 9.24160979958978 -50.9093960033376 7299181.28922472 T 35 CATAB v2.0g-lin.ifort 2021-Jul-08 04:53:00 2021-Jul-08 04:53
2109-Jan-24 09:16 00:02 Jupiter 1.57797907788624 1.57797870747414 1.57797944830766 2.62997365970092 2.41727282542276 2491379.886022889 2.12205270431423 207.765950231751 3.71622350784945 -89.8712867173456 14414203.2010732 T 35 CATAB v2.0g-lin.ifort 2021-Jul-08 04:53:00 2021-Jul-08 04:53
2119-Dec-16 14:13 00:03 Jupiter 1.60878612744697 1.60878531804438 1.60878693685239 1.79165045056537 1.46867816253823 2495358.092659102 2.94660813266377 188.84074901855 35.4200359972017 -27.6380083004607 3743778.71339284 T 35 CATAB v2.0g-lin.ifort 2021-Jul-08 04:53:00 2021-Jul-08 04:53
2130-Aug-31 16:54 00:04 Jupiter 1.81217314189573 1.81217176389937 1.81217451989369 2.16704845266108 1.93940322947108 2499269.203865429 3.69664456372919 178.456362590719 6.90325447941156 65.5208827669515 3895971.21696232 T 35 CATAB v2.0g-lin.ifort 2021-Jul-08 04:53:00 2021-Jul-08 04:53

Alternate Designations
 1999 RD212 = 1998 MY31 
Ephemeris | Orbit Diagram | Orbital Elements | Mission Design | Physical Parameters | Discovery Circumstances | Close-Approach Data ]
ABOUT SSD CREDITS/AWARDS PRIVACY/COPYRIGHT GLOSSARY LINKS
FirstGov 2021-Aug-03 12:09 UT
(server date/time)  
NASA Home Page
Site Manager:   Ryan S. Park
Webmaster  Alan B. Chamberlin